Vertical_Velocity
1 1 1 0 -0 -0 0 0 0 0 0 0 0 1 1 1 0 0 0 1 1 1 1 1 1 1 1 1 1 1 0 0 1 1 1 1 1 1 1 1 0 0 0 -0 -0 -1 -1 -2 -2 -2 -2 -2 -1 -0 -0 -1 -1 -1 -2 -1 1 2 3 1 -0 -1 -1 1 1 1 0 0 -0 -1 -1 -0 -0 -0 -1 -1 -1 -1 -1 -1 -1 -0 -0 -0 -0 -0 0 -0 -0 -0 0 0 0 0 -0 -1 -1 -1 -1
2 2 1 1 1 1 1 1 0 0 0 0 0 1 1 1 1 1 1 1 1 3 7 3 2 1 1 1 1 0 0 -0 0 1 1 1 1 1 1 1 1 1 0 0 -0 -1 -1 -2 -2 -2 -2 -2 -1 -0 -0 -0 -1 -1 -2 -1 -0 1 2 1 0 -0 -0 0 1 0 0 0 -0 -1 -1 -0 -0 -1 -1 -1 -1 -1 -1 -1 -1 -0 -0 -0 -0 -0 0 -0 -1 -0 -0 -0 0 0 0 -0 -1 -1 -1
2 2 2 1 1 1 1 1 1 1 1 1 1 1 1 1 1 1 1 1 4 8 11 10 5 1 1 1 1 0 0 -0 0 1 1 1 1 2 2 1 1 1 1 0 0 -0 -1 -1 -2 -2 -2 -2 -1 -1 -0 -0 -0 -0 -1 -1 -1 0 1 1 1 1 1 0 0 0 0 -0 -0 -0 -1 -1 -1 -1 -1 -1 -1 -1 -1 -1 -0 -0 -0 -0 -0 -0 0 -0 -1 -0 -0 -0 -0 0 1 0 -0 -1 -1
2 2 2 2 1 1 1 1 1 1 1 1 1 1 1 1 1 1 1 1 3 5 4 4 2 1 1 1 1 0 0 0 0 0 0 1 1 2 2 2 1 1 1 1 0 -0 -0 -1 -2 -2 -2 -2 -2 -1 -1 -0 0 0 -0 -1 -0 0 1 1 2 3 4 1 1 1 0 -0 -0 -0 -0 -0 -1 -1 -1 -1 -2 -2 -1 -1 -0 -0 -0 -0 -0 -0 0 -0 -1 -1 -0 -0 -0 0 1 0 -0 -0 -0
1 1 2 1 1 1 1 1 1 1 0 1 1 1 1 1 1 1 1 1 1 1 1 1 1 1 1 1 1 0 0 0 0 0 -0 0 1 2 2 2 2 1 1 1 1 0 0 -1 -1 -2 -2 -2 -2 -1 -1 -1 -0 0 0 0 0 1 2 2 3 3 1 5 4 1 1 0 -0 -0 -0 -0 -0 -1 -1 -1 -2 -2 -2 -1 -1 -0 -0 -0 -0 -0 0 -0 -0 -1 -0 -0 -0 0 1 0 0 -0 -0
1 1 1 1 1 1 1 1 1 1 1 1 1 1 0 1 1 1 1 1 1 1 1 1 1 1 1 1 1 0 1 1 1 0 -0 -0 0 1 2 2 2 2 1 1 1 1 0 -0 -1 -2 -2 -2 -2 -2 -2 -1 -0 0 1 1 1 1 2 3 2 1 -0 3 3 1 -0 0 0 -0 -0 -0 -0 -0 -0 -1 -1 -1 -1 -1 -1 -0 -0 -0 -0 -0 -0 -0 -0 -0 -0 -0 -0 -0 0 0 0 0 0
1 1 1 1 1 1 1 2 2 2 2 4 3 1 0 0 1 1 1 1 1 1 1 1 1 1 1 1 1 1 1 1 1 1 0 0 0 1 2 2 2 2 1 1 1 1 1 -0 -1 -1 -2 -2 -2 -2 -2 -2 -1 -0 1 1 1 1 2 2 2 1 0 1 2 3 0 0 0 0 -0 0 0 0 0 -0 -0 -1 -1 -0 -0 -0 -0 -0 -0 -0 -0 -0 -0 -0 -0 -0 -0 -0 0 0 0 0 0
1 1 1 1 1 1 1 2 4 5 1 1 0 0 0 0 0 0 0 0 1 1 1 1 1 1 1 1 1 1 1 1 1 1 1 0 0 1 1 2 2 2 1 1 1 1 0 -0 -1 -1 -2 -2 -2 -2 -2 -2 -1 -0 1 1 2 2 2 2 2 2 1 1 2 2 0 0 -0 -0 -0 -0 -0 0 0 0 -0 -0 -0 -0 0 0 -0 -0 -0 -0 -0 -0 -0 -0 -0 -0 -0 -0 -0 0 0 0 0
1 1 1 1 1 1 1 1 2 2 1 1 1 1 1 1 0 -0 -0 0 1 1 1 1 1 1 1 1 1 1 1 1 1 1 1 1 1 1 1 1 2 1 1 1 1 1 0 -0 -1 -1 -2 -2 -2 -3 -2 -2 -1 -0 1 1 2 2 3 3 3 3 5 2 1 1 -0 -0 -0 -0 -1 -0 -0 -0 0 0 -0 -0 -0 -0 0 0 0 0 0 0 0 -0 -0 -0 -0 -0 -0 -0 -0 -0 0 -0 -0
1 1 1 1 1 2 2 2 2 2 2 2 1 1 1 1 1 1 1 0 1 1 1 1 1 1 1 1 1 1 1 1 1 0 1 1 1 1 1 1 2 2 1 1 1 0 -0 -0 -1 -1 -2 -2 -2 -3 -2 -2 -1 -0 1 1 1 2 3 4 5 5 3 4 3 3 5 2 0 -0 -0 -0 -0 -0 -0 -0 -0 -0 -0 -0 -0 -0 -0 -0 -0 -0 -0 -0 -0 -0 -0 -1 -1 -1 -0 -0 -0 -0 -0
1 0 1 1 2 2 2 2 2 2 1 2 2 2 2 4 4 2 1 1 1 1 1 1 1 1 2 2 2 2 1 1 1 1 1 1 1 1 1 1 1 1 2 1 1 1 -0 -0 -1 -1 -1 -2 -2 -3 -3 -2 -2 -1 1 1 1 1 2 3 6 7 -0 2 2 3 9 3 1 0 -0 -0 -0 -0 -0 -0 -0 -1 -0 -1 -1 -1 -1 -0 -0 -0 -0 -0 -0 -0 -0 -1 -1 -1 -1 -0 -0 -0 -0
1 0 1 1 1 2 2 2 2 1 1 1 1 1 1 3 4 3 0 0 1 1 1 1 1 1 1 1 2 2 1 1 1 1 1 1 1 1 1 1 1 1 1 1 1 1 0 -0 -0 -1 -1 -2 -2 -3 -3 -2 -2 -1 0 1 1 1 1 2 4 4 -0 2 2 3 3 1 1 0 0 -0 -0 -0 -0 -0 -1 -1 -1 -1 -1 -1 -1 -1 -1 -1 -0 -0 -0 -0 -0 -1 -1 -1 -1 -1 -0 -0 -0
2 1 1 1 1 1 1 1 1 1 1 0 0 0 1 1 1 2 1 1 1 0 0 0 0 1 1 1 1 1 1 1 1 1 1 1 1 1 0 0 0 1 1 1 1 1 1 0 -0 -1 -1 -2 -2 -2 -2 -2 -1 -1 -0 0 0 0 0 3 5 4 -0 1 2 3 1 0 0 0 0 -0 -0 -0 -0 -0 -0 -1 -1 -1 -1 -1 -1 -1 -1 -1 -0 -0 -0 -0 -1 -1 -1 -1 -1 -1 -1 -1 -1
3 2 1 1 1 1 1 1 1 1 1 1 1 1 1 1 1 1 1 1 1 0 0 0 0 1 1 1 1 1 1 1 1 1 1 1 1 1 0 -0 -0 0 1 1 1 1 1 1 0 -0 -1 -1 -2 -2 -2 -2 -1 -0 -0 -0 -0 -0 -1 1 4 4 0 -0 0 1 1 0 0 0 0 -0 -0 -0 -0 -0 -0 -1 -1 -1 -1 -1 -1 -1 -1 -1 -0 -1 -1 -1 -1 -1 -1 -1 -1 -1 -1 -1 -1
4 3 2 1 1 1 1 1 1 1 1 1 1 1 1 1 2 2 2 2 1 1 0 1 1 1 1 1 1 1 1 0 0 0 0 1 1 0 0 -0 -0 -0 -0 1 1 1 1 1 0 -0 -1 -1 -2 -2 -2 -1 -0 0 1 0 -0 -1 -1 -1 -1 1 5 1 -1 -1 -0 0 0 0 0 -0 -0 -0 -0 -0 -0 -1 -1 -0 -0 -0 -0 -1 -1 -1 -1 -1 -1 -1 -1 -1 -1 -1 -1 -1 -1 -1 -1
3 3 3 2 2 1 1 1 1 1 2 2 2 2 2 2 2 2 3 2 2 1 1 1 1 1 2 2 1 1 1 0 -0 -0 0 0 1 1 1 0 -0 -0 -0 0 1 1 1 1 0 0 -0 -1 -1 -2 -2 -1 0 1 1 1 0 -0 -1 -2 -1 3 14 7 2 -1 -1 -0 0 0 0 0 -0 -0 -0 -0 -0 -0 -0 -0 -0 -0 -0 -0 -1 -1 -1 -1 -1 -1 -1 -0 -0 -1 -1 -1 -1 -1 -1
2 3 3 3 2 2 2 2 2 2 2 2 2 2 1 2 2 2 2 2 2 2 1 1 1 1 2 2 2 2 1 0 -0 -0 0 0 1 1 1 1 -0 -0 -0 1 1 1 1 1 1 0 -0 -1 -1 -2 -2 -1 -0 1 1 1 0 0 -0 -1 -1 1 8 9 5 1 1 0 0 0 0 0 -0 -0 -0 -0 -0 -0 -0 -0 -0 -0 -0 -0 -0 -1 -0 -0 -1 -1 -1 -0 -0 -0 -1 -1 -1 -1 -1
2 3 3 3 3 3 3 2 2 2 1 1 1 1 1 1 1 1 2 2 2 2 2 1 1 1 1 2 2 2 1 0 -0 -0 0 0 1 1 1 1 0 -0 0 1 1 1 1 1 1 1 0 -0 -1 -1 -2 -2 -1 0 0 0 0 0 0 -0 0 1 3 3 2 2 7 1 -0 -0 0 -0 -0 -0 -0 -0 -0 -0 -0 -0 0 0 0 -0 -0 -0 -0 -0 -0 -0 -0 -0 -0 -0 -0 -1 -1 -1 -1
2 2 3 3 2 2 2 1 1 1 1 1 1 1 1 1 1 1 1 1 1 2 2 1 1 1 1 1 2 2 2 1 0 0 0 0 0 0 0 0 0 0 0 1 1 1 1 1 1 1 0 0 -0 -1 -2 -2 -1 -0 -0 -0 -0 -0 -0 -0 1 4 8 3 0 1 5 0 -1 -0 -0 -0 -0 -0 -0 -0 0 0 -0 -0 0 0 0 0 -0 -0 -0 -0 -0 -0 -0 -0 -0 -0 -0 -1 -1 -1 -1
1 2 2 2 1 1 1 0 0 0 1 1 1 1 1 1 1 1 1 1 1 1 1 1 1 1 0 1 1 2 2 1 1 0 0 0 0 0 0 0 0 -0 -0 0 0 0 0 1 1 0 0 -0 -0 -1 -2 -1 -1 -0 -0 -0 -1 -1 -1 -0 0 3 10 8 4 1 -1 -0 0 -0 -1 -1 -1 -1 -0 -0 0 0 0 0 0 0 0 0 0 -0 -0 -0 -0 -0 -0 -0 -0 -0 -0 -0 -1 -1 -1
2 1 1 2 2 1 1 1 1 0 1 1 1 1 2 2 2 2 1 1 1 1 1 1 1 1 1 1 1 1 1 1 1 0 0 1 0 0 -0 0 0 0 -0 -0 -1 -1 -0 0 0 0 -0 -0 -1 -1 -1 -1 -0 -0 0 -0 -1 -1 -1 -1 -0 1 4 7 5 1 -1 4 3 0 -1 -1 -1 -1 -1 -0 0 0 0 0 0 0 1 1 0 0 -0 -0 -0 -0 -0 -0 -0 -0 -0 -0 -0 -1 -1
2 2 2 2 2 3 2 2 1 1 1 1 1 1 2 2 2 2 2 2 1 1 1 1 2 2 2 1 1 1 1 1 1 0 0 1 0 0 -0 0 0 0 0 -0 -1 -1 -1 -0 -0 -0 -0 -0 -1 -1 -1 -0 -0 -0 0 0 -0 -1 -1 -1 -1 -1 -1 1 1 -1 -1 4 3 -0 -1 -1 -1 -1 -1 -1 -0 -0 -0 0 0 1 1 1 0 0 0 -0 -0 -0 -0 -0 -0 -0 -0 -0 -0 -0 -0
3 2 1 2 3 3 4 3 2 2 1 1 1 1 1 2 2 2 2 2 2 1 1 1 2 2 2 2 2 2 2 1 1 0 0 0 0 0 0 0 1 1 1 -0 -1 -1 -1 -1 -0 -0 -0 -0 -1 -1 -1 -0 -0 -0 0 -0 -0 -1 -1 -1 -1 -1 -1 -1 -2 -2 -2 1 0 -1 -1 -1 -2 -2 -1 -1 -1 -1 -1 -0 -0 0 1 1 1 0 0 -0 -0 -0 -1 -1 -0 -0 -0 -0 -0 -0 -0
6 3 -1 1 2 3 4 3 3 2 2 2 1 1 2 2 2 2 2 2 2 2 2 1 1 2 2 2 2 3 3 2 2 1 0 0 0 0 0 0 1 1 1 1 -0 -1 -1 -1 -1 -0 -0 -0 -0 -1 -1 -0 -0 -0 0 -0 -0 -1 -1 -1 -1 -1 -1 -2 -0 1 -1 -1 -1 -1 -0 -1 -2 -2 -1 -1 -1 -1 -1 -1 -1 -0 0 0 0 0 0 0 -0 -0 -1 -1 -1 -0 -0 -0 -0 -0 -0
0 -0 -1 0 1 1 2 3 3 3 2 2 2 2 2 2 2 2 2 2 2 2 2 1 1 1 2 2 3 3 3 3 3 2 1 1 0 -0 -0 0 1 1 2 1 1 -0 -0 -0 -0 -0 -0 -0 -1 -1 -0 -0 0 0 0 0 -0 -1 -1 -2 -2 -2 -2 -2 -1 1 -1 -1 0 2 -0 -1 -1 -1 -1 -1 -1 -1 -1 -1 -1 -1 -0 -0 0 0 0 0 -0 -0 -1 -1 -1 -0 -0 -0 -0 -0 0
1 1 -1 -1 -1 -1 -0 1 2 2 3 2 2 1 1 2 2 2 2 3 3 2 2 1 1 1 2 2 2 3 3 4 4 3 3 2 1 -0 -1 -0 1 2 2 2 1 1 0 0 0 0 0 -0 -0 -1 -0 -0 0 0 0 0 0 -0 -1 -2 -2 -2 -2 -2 -2 -2 -3 -1 4 7 4 2 0 -1 -1 -1 -1 -1 -1 -1 -1 -1 -1 -0 -0 -0 0 -0 -0 -0 -1 -1 -1 -1 -0 -0 -0 -0 0
0 0 -1 -1 -1 -1 -1 -0 0 1 1 1 1 1 1 2 2 2 2 2 3 2 2 1 1 1 1 2 2 2 3 3 4 4 4 3 1 0 -1 -0 1 2 3 3 2 2 1 1 1 1 1 0 -0 -1 -1 -0 0 1 1 1 1 0 -1 -1 -2 -2 -2 -2 -3 -3 -3 -1 3 7 6 4 2 -0 -0 -0 -0 -0 -1 -1 -1 -1 -0 -0 -0 -0 -0 -0 -0 -0 -1 -1 -1 -1 -1 -1 -0 -0 -0
-2 -2 -2 -1 -1 -1 -1 -1 -1 -0 -0 -0 -0 0 1 1 1 2 2 2 2 2 2 1 1 1 1 1 1 2 2 3 3 4 4 3 2 1 0 -0 1 2 3 3 3 2 2 2 1 1 1 0 -0 -1 -1 -0 0 1 1 1 1 1 -0 -1 -2 -2 -2 -3 -3 -2 2 2 3 4 3 8 5 1 -0 0 0 -0 -0 -1 -1 -0 -0 0 0 0 -0 -0 -0 -0 -1 -1 -1 -1 -1 -1 -1 -1 -0
-2 -2 -2 -2 -2 -2 -2 -1 -1 -1 -1 -1 -1 -1 -0 0 0 1 1 1 2 2 2 2 2 2 1 1 1 1 2 2 2 3 3 2 2 2 1 1 1 1 2 3 3 2 2 2 2 2 1 0 -0 -0 -0 -0 -0 0 1 1 1 1 1 -0 -1 -2 -2 -3 -3 -1 5 7 6 5 2 2 1 -0 0 0 0 0 -0 -0 -0 -0 0 1 1 1 1 0 0 -0 -0 -0 -0 -1 -1 -1 -1 -1 -1
-1 -1 -1 -1 -1 -1 -1 -1 -1 -1 -1 -1 -1 -1 -1 -0 -0 -0 -0 0 1 1 2 2 3 3 3 2 2 2 1 1 1 1 2 2 2 2 1 1 1 2 2 2 2 2 2 2 2 2 1 1 0 -0 -1 -0 -0 0 1 1 1 1 1 0 -1 -1 -2 -3 -3 -1 4 7 5 2 0 -1 -1 -1 0 1 1 0 -0 -0 -0 -0 0 1 1 1 1 1 1 0 -0 -0 -0 -0 -1 -1 -1 -1 -1
-0 -0 -0 -1 -1 -1 -1 -0 -0 -0 -0 -1 -1 -1 -0 1 0 -0 -0 -1 -1 -1 -1 -0 1 3 3 4 4 3 2 1 1 1 1 1 1 1 1 1 1 1 2 2 2 2 2 2 2 2 2 1 0 -0 -1 -0 -0 0 0 1 1 1 1 1 -0 -1 -1 -2 -2 -2 -1 4 6 5 2 0 -0 -0 -2 0 1 1 1 0 -0 -1 -1 -0 1 1 2 2 1 1 1 0 -0 -0 -1 -1 -1 -1 -1
-0 -1 -1 -1 -1 -1 -1 -1 -1 -0 -0 -0 -1 -1 0 1 1 1 0 -0 -1 -2 -0 0 1 1 1 2 3 3 3 2 2 2 2 2 2 2 2 2 1 1 1 2 1 1 2 2 2 2 2 1 1 -0 -0 -0 -0 -0 0 0 1 1 1 1 0 -0 -1 -2 -2 -2 -2 2 7 10 8 10 6 2 2 5 6 6 7 2 -0 -0 -0 -1 -0 0 1 2 2 2 1 1 0 -0 -1 -1 -1 -1 -1
0 -0 -1 -1 -2 -2 -2 -1 -1 -1 -0 -1 -1 -1 0 1 2 2 1 1 0 -0 -1 -0 -0 -1 -0 -0 0 1 2 2 2 2 2 2 2 2 2 2 2 1 2 2 1 1 2 2 2 2 2 2 1 0 0 -0 -0 -0 -0 0 0 1 1 0 0 -0 -1 -1 -2 -2 -2 0 5 8 7 8 5 2 5 10 12 12 8 2 0 1 1 -0 -1 -0 1 1 2 2 2 1 1 0 -0 -1 -1 -1 -1
1 1 -0 -1 -1 -2 -1 -1 -1 -1 -1 -1 -1 -1 -0 1 2 3 3 2 1 1 1 0 -0 -0 -1 -1 -1 -1 -0 -0 1 1 2 2 2 2 1 1 1 1 2 1 1 2 3 3 3 3 3 2 1 0 0 0 -0 -0 -1 -0 0 0 0 0 0 -0 -1 -1 -2 -2 -2 -1 0 2 1 5 5 2 -1 4 8 8 2 -0 0 1 0 -1 -1 -0 0 1 2 2 2 1 1 1 0 -0 -1 -1 -1
2 2 1 1 -0 -1 -1 -1 -1 -0 -0 -1 -1 -2 -1 -0 1 2 3 2 2 1 1 1 0 -0 -0 -0 -0 -1 -1 -1 -1 -0 1 1 1 1 1 0 1 1 1 1 1 2 3 3 3 3 3 2 1 1 1 0 -0 -0 0 0 0 1 1 0 0 -0 -1 -1 -2 -2 -2 -1 -1 -1 -2 3 6 6 0 1 1 1 3 2 4 4 0 0 2 3 0 1 2 2 2 1 1 1 1 0 -0 -1 -1
2 2 2 2 2 1 0 -0 -1 -1 -0 -0 -0 -1 -1 -1 0 1 1 2 2 1 1 1 1 1 1 1 1 0 -0 -1 -1 -1 -0 0 0 1 1 0 0 0 1 0 1 2 2 2 3 3 4 3 3 2 1 1 1 2 3 2 1 1 1 1 0 0 -0 -1 -1 -2 -2 -2 -2 -1 1 0 2 4 2 5 5 5 10 8 4 0 -1 0 2 3 1 3 3 2 2 1 1 1 1 1 0 -0 -1
2 2 3 3 3 3 2 1 -0 -1 -1 -1 -0 -0 -1 -1 -0 0 0 1 1 1 2 4 2 -0 1 2 2 1 1 1 -0 -1 -1 -0 0 0 0 -0 0 0 0 -0 0 1 2 2 2 3 5 6 6 5 4 3 4 4 3 2 1 1 0 1 1 0 0 -0 -1 -1 -1 -1 -2 -1 0 -1 -1 -0 0 4 7 9 12 11 5 -0 -2 -1 -1 -1 1 5 5 4 1 1 0 1 1 1 0 -0 -1
1 1 2 2 2 3 3 2 1 -0 -1 -2 -1 -1 -0 -0 -0 0 0 0 1 1 1 7 3 -1 -1 1 1 1 3 2 1 1 0 1 1 0 0 0 0 0 -1 -1 -0 1 1 2 2 3 3 7 9 10 9 9 8 8 6 7 5 3 1 0 0 0 1 0 -0 -1 -1 -1 -1 -1 -1 -1 -1 -1 -1 -0 2 6 11 10 5 0 -2 -2 -2 -2 1 6 6 5 2 1 0 0 0 0 0 -0 -0
-0 -0 0 1 1 2 2 2 2 1 -1 -1 -2 -2 -1 -1 -0 -0 0 0 1 1 1 3 1 -1 -1 -0 -0 1 2 3 2 2 2 2 1 0 1 0 -0 -1 -1 -1 -1 -0 -0 1 2 3 2 3 6 8 9 10 10 8 8 7 6 4 1 -0 -0 0 0 -0 -0 -0 -1 -1 -1 -1 -1 -1 -1 -0 -1 -1 -1 1 8 9 6 1 -2 -2 -2 -1 1 4 5 5 4 2 1 -0 -0 -0 -0 -0 -0
-2 -1 -1 -0 -0 0 0 1 1 1 -0 -1 -2 -2 -1 -1 -1 -1 -0 -0 0 1 2 1 -0 -1 -0 -0 -0 -0 1 2 2 2 2 2 1 1 2 0 -1 -2 -1 -1 -1 -1 -1 0 1 2 2 2 2 3 4 5 4 3 2 1 1 1 0 -0 -0 -0 -0 -0 -0 -0 -0 -0 -1 -1 -1 -1 -1 -0 -0 -0 -1 -1 2 2 1 -1 -1 -2 -2 -1 -1 2 5 6 6 4 1 -0 -0 -0 -0 -0 -0
-2 -2 -2 -2 -1 -1 -0 -0 -0 -0 -0 -1 -1 -2 -2 -1 -1 -1 -1 -1 -1 -0 1 1 1 -0 -1 0 0 -0 -1 1 2 2 2 2 2 2 1 1 -0 -2 -2 -1 -1 -2 -1 -0 0 1 2 2 2 2 1 1 1 1 1 0 -0 -0 0 1 0 -0 -1 -1 -1 -0 -0 -0 -0 -1 -1 -1 -0 1 1 -0 -1 -1 -1 -1 -1 -2 -2 1 2 1 -1 2 5 8 6 5 2 -0 0 -0 -0 -0 -0
-2 -2 -2 -2 -2 -2 -1 -1 -1 -1 -1 -1 -2 -2 -2 -1 -1 -1 -1 -1 -2 -1 -0 1 1 -0 -1 0 1 0 -1 0 1 2 2 2 2 2 1 1 1 0 -2 -2 -2 -1 -1 -1 -0 0 1 2 2 1 -0 0 1 1 1 1 0 0 1 1 0 -0 -1 -1 -1 -0 0 0 -0 -0 -0 -0 -0 1 0 -0 -1 -1 -1 -1 -1 -1 -0 7 8 5 2 3 4 5 4 5 4 2 1 -0 -1 -1 -1
-0 -1 -1 -2 -2 -2 -2 -1 -1 -1 -1 -2 -2 -2 -2 -2 -2 -1 -1 -1 -2 -1 -1 0 0 -1 -1 -0 0 0 0 0 1 1 1 1 1 2 2 1 1 2 1 -1 -2 -1 -1 -2 -2 -1 -1 -0 -0 -0 -0 1 1 1 1 0 -0 0 1 1 1 -0 -1 -2 -2 -1 -0 0 0 -0 -0 -0 0 0 -0 -0 -1 -1 -0 -1 -1 -1 2 10 10 7 4 2 1 1 3 5 6 6 3 -0 -1 -1 -1
0 -0 -1 -1 -2 -2 -2 -2 -2 -2 -1 -1 -1 -2 -2 -2 -2 -2 -1 -1 -1 -2 -1 -0 -0 -0 -1 -1 -0 0 1 1 1 1 1 1 1 1 1 1 1 2 4 1 -0 -1 -1 -1 -2 -4 -5 -4 -2 -1 3 5 3 1 1 1 0 1 1 1 2 1 -0 -2 -2 -2 -1 -0 -0 -0 -0 -0 -0 -0 -0 -0 -0 -0 -0 -1 -1 -1 1 6 6 4 3 0 0 2 6 4 5 6 3 -0 -1 -1 -1
-0 -0 -0 -1 -1 -2 -2 -2 -2 -2 -1 -1 -1 -1 -1 -1 -2 -2 -2 -2 -2 -1 -2 -1 0 1 0 -0 -0 0 1 1 1 1 2 2 1 1 0 1 1 1 2 2 1 1 1 -0 -1 -2 -2 -4 -5 -4 2 5 3 1 2 1 1 1 1 1 1 1 -0 -2 -3 -2 -1 -1 -0 -0 -0 -0 -1 -1 -1 -0 -0 -0 -0 -0 -0 -1 -1 -0 -0 -0 -1 -2 0 4 9 5 3 3 1 1 -0 -2 -1
-0 -1 -1 -1 -1 -2 -1 -2 -2 -2 -2 -2 -1 -1 -1 -0 -1 -2 -2 -3 -2 -2 -1 -1 -0 1 1 1 0 0 0 1 1 1 2 2 1 -0 -1 -0 0 1 0 1 2 3 2 1 0 -0 2 1 -3 -5 -3 0 1 1 1 1 0 1 1 1 1 0 -0 -1 -2 -2 -1 -0 -0 -0 -0 -1 -1 -1 -1 -0 -0 -0 -0 -0 -0 -0 -1 -1 -1 -1 -1 -2 -1 3 10 8 5 1 -0 2 1 -1 -1
4 1 -1 -1 -2 -2 -1 -1 -2 -2 -2 -2 -2 -2 -1 -0 0 -0 -2 -2 -2 -2 -2 -1 -1 -1 0 0 0 0 -0 0 0 1 0 -0 -1 -1 -0 -0 1 1 1 1 1 2 3 2 2 1 -1 -0 -2 -4 -3 -2 -1 -1 -0 -0 0 1 2 2 1 1 -0 -1 -1 -1 -1 -0 0 1 1 -0 -0 -0 -0 0 0 0 -0 -0 -0 -0 -1 -1 -1 -1 -1 -2 -0 4 12 10 7 4 3 2 1 -0 -0
9 8 4 2 0 -1 -1 -1 -1 -2 -2 -3 -3 -2 -2 -0 0 -0 -1 -2 -2 -2 -2 -2 -1 -1 -1 -0 -0 -0 -0 -0 0 0 0 0 -0 0 2 1 1 1 1 1 1 1 2 2 3 2 1 -0 -1 -2 -1 -0 -1 -1 -2 -1 0 1 2 2 1 1 0 0 0 -0 -0 -0 1 1 1 1 1 1 0 0 1 1 0 -0 -0 -1 -1 -1 -2 -2 -2 -3 -0 5 13 10 8 6 4 2 0 0 1
4 5 5 6 4 2 0 -0 -1 -1 -2 -3 -4 -3 -2 -1 -1 -1 -1 -2 -2 -2 -3 -2 -2 -2 -1 -1 -0 -0 0 -0 -0 0 1 1 -0 -0 1 2 2 0 0 1 1 1 1 2 2 2 2 1 1 1 1 0 -1 -1 -2 -2 -1 -1 1 1 0 0 1 1 1 0 -0 0 1 1 1 1 1 1 -0 2 4 4 0 0 -0 -1 -1 -2 -2 -2 -3 -3 0 6 12 10 9 7 4 3 2 1 1
1 1 1 4 5 6 4 2 1 -0 -1 -2 -3 -4 -3 -2 -2 -1 -1 -2 -2 -2 -3 -4 -3 -2 -1 -1 -1 -0 1 0 0 0 0 -0 -0 -1 -1 -0 1 1 1 1 1 1 1 1 1 1 1 1 1 1 1 0 -1 -2 -3 -4 -4 -2 3 1 0 1 2 1 1 0 1 1 1 1 1 1 1 1 -0 6 8 6 -1 -0 -0 -1 -1 -2 -2 -2 -3 -2 2 7 10 11 10 8 6 6 4 1 -0
-0 0 1 2 4 5 4 2 2 1 0 -1 -2 -3 -4 -4 -3 -2 -1 -1 -2 -2 -2 -4 -4 -4 -1 -1 -1 -1 2 1 1 1 -0 -2 -1 0 -1 -2 -0 2 3 1 1 0 -1 -0 -0 -1 -0 -0 0 0 0 0 0 -1 -4 -6 -2 4 12 5 2 1 1 1 1 0 1 1 1 1 1 1 1 1 1 6 9 6 -3 -2 -2 -2 -2 -2 -2 -2 -3 0 5 9 7 8 8 8 7 8 6 4 0
-1 -0 0 1 1 2 5 5 3 1 2 0 -1 -2 -3 -4 -4 -3 -2 -1 -1 -1 -1 -2 -4 -5 -4 -1 -1 -1 1 1 0 0 1 -1 -2 -0 1 0 -0 0 2 2 1 -1 -0 -0 -1 -1 -0 -0 0 0 1 0 0 -1 -4 -3 3 10 11 2 -2 -2 -0 1 1 0 1 2 1 1 2 2 2 1 1 3 5 4 -1 -2 -3 -3 -2 -2 -2 -2 -3 0 4 6 2 2 3 4 5 5 5 4 2
-2 -1 -1 -1 -1 1 4 7 5 2 2 1 -0 -1 -2 -3 -4 -4 -4 -2 -1 -1 -1 -1 -2 -4 -6 -4 -2 -2 -1 1 0 -0 2 1 -0 -1 1 2 -0 -2 -0 2 1 -0 0 1 -0 -2 -1 0 1 1 1 1 0 -1 -4 -0 7 11 3 -4 -5 -2 1 3 2 1 0 2 2 2 2 2 2 1 -0 -0 0 1 1 2 1 -0 -1 -1 -2 -2 -2 -0 1 1 0 -0 -1 0 4 3 2 2 1
-1 -1 -1 -1 -0 0 0 1 2 2 2 2 1 1 -1 -2 -3 -4 -5 -5 -4 -3 -2 -1 -1 -2 -5 -6 -4 -3 -1 0 1 1 0 0 1 -0 -3 -1 -0 0 -0 3 2 -1 -4 0 -0 -2 -2 1 2 2 1 1 1 -1 -4 1 8 9 -3 -6 -5 -1 5 8 5 1 1 1 1 1 1 2 2 2 -0 -1 -1 -0 1 1 1 0 0 -0 -1 -1 -1 -1 -0 0 1 0 -0 -0 2 2 2 2 1
-1 -0 -0 -0 0 1 -0 1 1 1 0 1 1 1 0 -0 -1 -1 -3 -5 -5 -5 -4 -3 -2 -2 -2 -4 -5 -4 -2 -1 0 1 0 -1 -0 0 -1 -2 -0 2 -0 2 1 -1 -4 1 2 1 -1 1 3 3 0 1 1 0 -3 -0 3 3 -6 -5 -4 1 10 12 9 4 1 1 0 0 0 1 1 0 0 -1 -1 -1 0 0 -0 -0 -0 -0 -1 -0 -0 -1 -1 1 1 1 0 -0 -0 1 2 2 1
-0 0 1 1 1 1 1 1 1 1 1 1 0 0 1 1 2 2 -0 -2 -4 -5 -5 -4 -3 -2 -1 -2 -3 -4 -2 -2 -1 -0 1 -1 -2 -1 1 -0 -0 -0 -1 -2 -2 -0 1 2 5 5 -1 1 3 3 -1 -1 -0 0 -2 -2 -2 -3 -6 -4 0 6 14 16 13 8 2 1 1 1 0 1 1 0 -0 -1 -2 -2 -2 0 2 2 -0 -1 1 4 5 -1 -0 2 2 1 0 0 0 2 2 1 -0
1 1 1 2 2 2 2 1 1 0 0 -1 -1 -0 0 2 3 3 3 2 -1 -3 -3 -2 -2 -2 -3 -1 -1 -1 -2 -2 -2 -1 0 -0 -2 -2 -0 0 -0 -0 0 -2 -1 0 -0 3 6 5 -4 -2 2 4 -0 -2 -1 0 1 -1 -3 -4 -2 3 6 10 12 15 13 7 1 1 2 2 2 1 1 1 -1 -2 -3 -3 -0 4 6 5 1 2 7 11 10 4 2 3 2 0 -0 0 1 2 1 -0 -1
3 1 1 2 2 3 3 3 2 1 -0 -2 -2 -2 -1 1 2 2 3 1 -1 -1 -0 0 0 -1 -3 -2 -1 0 -0 -1 -1 -1 -2 -1 -1 -2 -1 -0 -0 -0 0 0 1 1 0 2 3 1 -4 -2 3 5 2 -1 -0 2 6 3 1 0 4 8 8 7 5 7 6 4 1 6 7 6 4 1 -0 0 -0 -1 -2 -1 3 7 10 10 7 10 15 18 14 10 8 6 4 1 1 1 2 2 1 -1 -2
2 -0 -2 -0 1 2 3 4 3 2 1 -1 -2 -1 2 2 1 1 3 2 1 1 1 0 -0 -1 -4 -4 -3 -1 -1 -1 0 1 -1 -2 -2 -2 -1 0 0 -0 -0 -0 -0 0 2 1 -0 -1 -1 0 3 4 2 0 -0 2 6 7 6 5 6 8 6 3 1 0 0 1 3 7 7 4 1 -0 -0 -0 -0 -0 -0 2 6 11 14 16 17 20 22 21 17 14 13 10 6 4 2 2 2 1 0 -1 -1
0 -1 -4 -4 -3 -1 0 0 -0 0 5 11 15 17 15 6 0 -2 1 2 3 2 0 -0 -0 -1 -2 -4 -4 -4 -5 -3 -0 1 1 -1 -2 -3 -2 -0 1 1 -0 -0 -0 0 2 1 1 0 -1 1 1 1 1 2 -0 -2 3 8 9 8 7 6 4 1 1 -0 -1 -0 2 2 1 -1 -2 -2 -2 -1 -2 -2 -2 0 5 11 14 17 19 22 22 19 15 14 12 9 5 4 3 2 1 1 0 -0 -1
-0 1 2 -1 -3 -4 -4 -3 -4 -3 2 16 26 32 32 22 9 -1 -2 -1 0 0 -0 1 2 4 4 1 -2 -4 -5 -3 -2 -1 1 1 -0 -2 -4 -1 1 1 -0 -0 0 1 1 1 1 0 -0 2 1 -1 -1 2 1 -1 2 6 7 8 7 5 3 2 1 1 -0 -0 -0 -0 0 1 -0 -2 -3 -3 -2 -3 -2 -0 3 7 12 16 18 19 17 13 9 8 7 5 2 2 2 1 0 0 0 0 0
Height
3151 3151 3151 3151 3150 3150 3150 3150 3150 3150 3150 3150 3151 3151 3151 3151 3151 3151 3151 3151 3151 3151 3151 3151 3151 3151 3151 3151 3151 3151 3151 3152 3152 3152 3152 3153 3153 3153 3153 3153 3153 3154 3154 3154 3154 3155 3155 3155 3156 3156 3156 3157 3157 3158 3158 3159 3159 3159 3159 3160 3160 3161 3161 3161 3161 3162 3162 3162 3162 3162 3163 3163 3163 3164 3164 3164 3164 3165 3165 3165 3165 3165 3166 3166 3167 3167 3167 3168 3168 3168 3169 3169 3169 3170 3170 3170 3170 3171 3171 3171 3171 3171 3172
3150 3150 3150 3150 3150 3150 3150 3150 3150 3150 3150 3150 3150 3150 3150 3150 3150 3150 3150 3150 3150 3150 3151 3150 3150 3150 3150 3150 3150 3150 3150 3151 3151 3151 3151 3152 3152 3152 3152 3152 3152 3153 3153 3153 3153 3154 3154 3155 3155 3155 3155 3156 3156 3157 3157 3158 3158 3158 3158 3159 3159 3160 3160 3161 3161 3161 3161 3161 3162 3163 3162 3162 3163 3163 3163 3163 3164 3164 3164 3165 3165 3165 3165 3166 3166 3166 3167 3167 3168 3168 3168 3168 3169 3169 3169 3170 3170 3170 3170 3170 3171 3171 3171
3150 3149 3149 3149 3149 3149 3149 3149 3149 3149 3149 3149 3149 3149 3149 3149 3149 3149 3149 3149 3150 3150 3150 3151 3150 3149 3149 3149 3149 3150 3150 3150 3150 3150 3150 3151 3151 3151 3151 3151 3152 3152 3152 3152 3152 3153 3153 3153 3154 3154 3154 3155 3155 3156 3156 3157 3157 3157 3157 3158 3158 3159 3160 3160 3160 3161 3161 3161 3161 3161 3162 3162 3162 3162 3162 3163 3163 3163 3164 3164 3164 3165 3165 3165 3166 3166 3166 3167 3167 3167 3168 3168 3168 3168 3169 3169 3169 3170 3170 3170 3170 3170 3171
3148 3148 3148 3148 3148 3148 3148 3148 3147 3147 3147 3147 3147 3148 3148 3148 3148 3148 3148 3148 3149 3149 3149 3149 3149 3148 3148 3148 3148 3149 3149 3149 3149 3149 3150 3150 3150 3150 3150 3150 3151 3151 3151 3151 3151 3152 3152 3152 3153 3153 3153 3154 3154 3155 3155 3156 3156 3156 3157 3157 3157 3158 3159 3159 3160 3160 3160 3161 3161 3161 3161 3161 3161 3162 3162 3162 3162 3162 3163 3163 3164 3164 3164 3165 3165 3165 3166 3166 3166 3167 3167 3167 3168 3168 3168 3168 3169 3169 3169 3170 3170 3170 3170
3147 3147 3147 3147 3147 3147 3147 3147 3146 3146 3146 3146 3146 3146 3146 3146 3147 3147 3147 3147 3147 3147 3147 3147 3147 3147 3147 3147 3147 3148 3148 3148 3148 3148 3148 3149 3149 3149 3150 3150 3150 3150 3150 3150 3150 3150 3151 3151 3151 3152 3152 3152 3153 3153 3154 3155 3155 3155 3156 3156 3156 3157 3158 3158 3160 3160 3160 3160 3160 3160 3160 3160 3161 3161 3161 3161 3161 3162 3162 3162 3163 3163 3164 3164 3165 3165 3165 3166 3166 3166 3166 3167 3167 3167 3168 3168 3168 3169 3169 3169 3169 3170 3170
3146 3146 3146 3146 3146 3146 3146 3146 3146 3145 3145 3145 3145 3145 3145 3145 3146 3146 3146 3146 3146 3146 3146 3146 3146 3146 3146 3146 3146 3147 3147 3147 3147 3147 3147 3147 3148 3148 3148 3149 3149 3149 3149 3149 3149 3150 3150 3150 3150 3151 3151 3151 3152 3152 3153 3153 3154 3155 3155 3155 3156 3156 3157 3158 3158 3158 3159 3159 3159 3159 3159 3160 3160 3160 3160 3161 3161 3161 3161 3162 3162 3162 3163 3163 3164 3164 3165 3165 3165 3165 3166 3166 3166 3167 3167 3167 3168 3168 3168 3168 3169 3169 3169
3145 3145 3145 3145 3145 3145 3145 3145 3145 3145 3145 3145 3144 3145 3145 3145 3145 3145 3145 3145 3145 3145 3145 3145 3145 3145 3145 3145 3145 3146 3146 3146 3146 3146 3146 3146 3147 3147 3147 3148 3148 3148 3148 3148 3148 3148 3149 3149 3149 3150 3150 3150 3150 3151 3151 3152 3153 3153 3154 3154 3155 3155 3156 3157 3157 3158 3158 3158 3158 3159 3159 3159 3159 3160 3160 3160 3160 3161 3161 3161 3161 3162 3162 3163 3163 3163 3164 3164 3165 3165 3165 3165 3166 3166 3166 3167 3167 3167 3168 3168 3168 3168 3169
3144 3144 3144 3144 3144 3144 3144 3144 3144 3144 3144 3144 3144 3144 3144 3144 3144 3144 3144 3144 3144 3144 3144 3144 3144 3144 3144 3145 3145 3145 3145 3145 3145 3145 3145 3146 3146 3146 3146 3146 3147 3147 3147 3147 3147 3147 3148 3148 3148 3149 3149 3149 3149 3150 3150 3150 3151 3152 3153 3153 3154 3155 3155 3156 3156 3157 3157 3157 3157 3157 3158 3158 3158 3159 3159 3159 3160 3160 3160 3160 3161 3161 3161 3162 3162 3163 3163 3163 3164 3164 3165 3165 3165 3165 3166 3166 3166 3167 3167 3167 3167 3168 3168
3143 3143 3143 3143 3143 3143 3143 3143 3143 3143 3143 3143 3143 3143 3143 3143 3143 3143 3143 3143 3143 3143 3143 3143 3143 3143 3143 3143 3144 3144 3144 3144 3144 3145 3145 3145 3145 3145 3145 3145 3145 3146 3146 3146 3146 3146 3146 3147 3147 3148 3148 3148 3148 3149 3149 3149 3150 3151 3151 3152 3153 3154 3154 3155 3156 3156 3157 3156 3156 3157 3157 3157 3157 3158 3158 3158 3159 3159 3160 3160 3160 3160 3160 3161 3161 3162 3162 3162 3163 3163 3164 3164 3164 3165 3165 3165 3165 3166 3166 3166 3167 3167 3167
3141 3141 3141 3141 3142 3142 3142 3142 3142 3142 3142 3142 3142 3142 3142 3142 3142 3142 3142 3142 3142 3142 3142 3142 3142 3142 3142 3142 3143 3143 3143 3143 3143 3143 3144 3144 3144 3144 3144 3144 3145 3145 3145 3145 3145 3145 3145 3146 3146 3146 3147 3147 3147 3147 3148 3148 3149 3150 3150 3151 3152 3152 3153 3154 3155 3155 3155 3155 3155 3155 3156 3156 3156 3157 3157 3157 3158 3158 3159 3159 3159 3160 3160 3160 3160 3161 3161 3161 3162 3162 3162 3163 3163 3163 3164 3164 3164 3165 3165 3166 3166 3166 3166
3140 3140 3140 3140 3140 3140 3140 3140 3141 3141 3141 3141 3141 3141 3141 3141 3141 3141 3141 3141 3141 3141 3141 3141 3141 3141 3141 3141 3141 3142 3142 3142 3142 3142 3142 3143 3143 3143 3143 3143 3143 3144 3144 3144 3144 3144 3145 3145 3145 3145 3146 3146 3146 3146 3147 3147 3147 3148 3149 3150 3150 3151 3152 3153 3154 3155 3154 3154 3155 3155 3155 3155 3155 3156 3156 3156 3157 3157 3157 3158 3158 3159 3159 3159 3160 3160 3160 3160 3161 3161 3161 3162 3162 3162 3162 3163 3163 3164 3164 3165 3165 3165 3166
3139 3139 3139 3139 3139 3139 3139 3139 3139 3139 3139 3139 3140 3140 3140 3140 3140 3140 3140 3140 3140 3140 3140 3140 3140 3140 3140 3140 3140 3140 3141 3141 3141 3141 3141 3142 3142 3142 3142 3142 3142 3142 3143 3143 3143 3143 3144 3144 3144 3145 3145 3145 3145 3145 3145 3146 3146 3147 3148 3149 3149 3150 3151 3152 3152 3153 3152 3153 3153 3154 3154 3154 3154 3155 3155 3155 3156 3156 3156 3157 3157 3157 3158 3158 3159 3159 3159 3160 3160 3160 3160 3160 3160 3161 3161 3161 3161 3162 3163 3163 3164 3165 3165
3137 3137 3137 3137 3137 3137 3137 3138 3138 3138 3138 3138 3138 3138 3138 3138 3138 3139 3139 3139 3139 3139 3139 3139 3139 3139 3139 3139 3139 3139 3140 3140 3140 3140 3140 3140 3140 3140 3141 3141 3141 3141 3141 3142 3142 3142 3142 3143 3143 3143 3144 3144 3144 3144 3145 3145 3145 3146 3147 3147 3148 3148 3149 3150 3151 3151 3151 3151 3152 3153 3153 3153 3153 3154 3154 3155 3155 3155 3155 3155 3156 3156 3157 3157 3158 3158 3158 3159 3159 3159 3159 3159 3159 3160 3160 3160 3160 3161 3161 3162 3163 3163 3164
3136 3136 3135 3135 3135 3136 3136 3136 3136 3136 3136 3136 3136 3136 3137 3137 3137 3137 3137 3137 3137 3137 3137 3137 3138 3138 3138 3138 3138 3138 3138 3139 3139 3139 3139 3139 3139 3139 3140 3140 3140 3140 3140 3140 3141 3141 3141 3142 3142 3142 3142 3143 3143 3143 3144 3144 3145 3145 3145 3146 3146 3147 3147 3148 3150 3150 3150 3150 3151 3151 3152 3152 3152 3153 3153 3154 3154 3154 3154 3155 3155 3155 3156 3156 3157 3157 3157 3158 3158 3158 3158 3158 3158 3158 3159 3159 3159 3160 3160 3161 3161 3162 3163
3135 3135 3134 3134 3134 3134 3134 3134 3135 3135 3135 3135 3135 3135 3135 3135 3135 3135 3136 3136 3136 3136 3136 3136 3136 3136 3137 3137 3137 3137 3137 3137 3137 3137 3138 3138 3138 3138 3138 3138 3139 3139 3139 3139 3140 3140 3140 3140 3140 3141 3141 3141 3142 3142 3142 3143 3144 3144 3145 3145 3145 3145 3146 3146 3147 3148 3149 3149 3150 3150 3150 3151 3151 3152 3152 3152 3153 3153 3153 3154 3154 3154 3155 3155 3155 3156 3156 3157 3157 3157 3157 3158 3158 3158 3158 3158 3158 3159 3159 3160 3160 3161 3162
3133 3133 3133 3133 3133 3133 3133 3133 3133 3133 3133 3133 3133 3134 3134 3134 3134 3134 3134 3135 3135 3135 3135 3135 3135 3135 3135 3135 3135 3136 3136 3136 3136 3136 3136 3137 3137 3137 3137 3137 3137 3137 3138 3138 3138 3139 3139 3139 3139 3140 3140 3140 3140 3141 3141 3142 3143 3143 3144 3144 3144 3144 3145 3145 3145 3147 3149 3149 3148 3149 3149 3150 3150 3151 3151 3151 3151 3152 3152 3152 3153 3153 3154 3154 3155 3155 3155 3156 3156 3156 3157 3157 3157 3157 3157 3157 3158 3158 3158 3159 3159 3160 3160
3131 3131 3131 3131 3131 3131 3131 3131 3131 3131 3131 3132 3132 3132 3132 3132 3132 3132 3133 3133 3133 3133 3133 3133 3134 3134 3134 3134 3134 3135 3135 3135 3135 3135 3135 3135 3135 3136 3136 3136 3136 3136 3136 3137 3137 3137 3138 3138 3138 3138 3139 3139 3139 3140 3140 3141 3141 3142 3143 3143 3143 3143 3144 3144 3144 3145 3147 3148 3148 3148 3148 3148 3149 3149 3150 3150 3150 3150 3151 3151 3151 3152 3152 3153 3154 3154 3155 3155 3155 3155 3156 3156 3156 3156 3157 3157 3157 3157 3158 3158 3159 3159 3160
3129 3129 3129 3129 3129 3130 3130 3130 3130 3130 3130 3130 3130 3130 3130 3130 3130 3130 3131 3131 3131 3131 3132 3132 3132 3132 3132 3133 3133 3133 3133 3133 3133 3133 3134 3134 3134 3135 3135 3135 3135 3135 3135 3136 3136 3136 3136 3136 3137 3137 3137 3138 3138 3138 3139 3140 3140 3141 3141 3142 3142 3142 3143 3143 3143 3144 3145 3145 3146 3147 3147 3147 3148 3148 3149 3149 3149 3149 3150 3150 3150 3151 3151 3152 3153 3153 3154 3154 3154 3155 3155 3155 3156 3156 3156 3156 3157 3157 3157 3158 3158 3159 3159
3127 3127 3127 3127 3127 3127 3127 3127 3127 3128 3128 3128 3128 3128 3128 3128 3128 3129 3129 3129 3130 3130 3130 3130 3130 3130 3131 3131 3131 3131 3131 3132 3132 3132 3132 3132 3133 3133 3133 3133 3134 3134 3134 3135 3135 3135 3135 3135 3135 3136 3136 3136 3137 3137 3137 3138 3139 3140 3140 3140 3141 3141 3141 3142 3142 3144 3144 3144 3144 3145 3145 3145 3146 3147 3147 3147 3148 3148 3148 3149 3149 3150 3150 3151 3151 3152 3153 3153 3154 3154 3154 3155 3155 3155 3155 3156 3156 3156 3157 3157 3158 3158 3158
3125 3125 3125 3125 3125 3125 3125 3125 3125 3125 3125 3126 3126 3126 3126 3126 3126 3126 3127 3127 3127 3128 3128 3128 3128 3129 3129 3129 3130 3130 3130 3130 3130 3130 3130 3131 3131 3131 3131 3132 3132 3133 3133 3133 3134 3134 3134 3134 3134 3135 3135 3135 3135 3136 3136 3137 3137 3138 3139 3139 3139 3140 3140 3140 3141 3142 3144 3144 3143 3143 3144 3144 3145 3145 3146 3146 3146 3147 3147 3147 3148 3149 3149 3150 3150 3151 3151 3152 3152 3153 3153 3154 3154 3155 3155 3155 3155 3156 3156 3157 3157 3157 3158
3123 3123 3123 3123 3123 3123 3123 3123 3123 3123 3123 3123 3124 3124 3124 3124 3124 3125 3125 3125 3125 3126 3126 3126 3126 3127 3127 3127 3128 3128 3128 3128 3129 3129 3129 3129 3129 3130 3130 3130 3130 3131 3131 3132 3132 3132 3133 3133 3133 3133 3133 3134 3134 3134 3135 3135 3136 3137 3137 3138 3138 3138 3139 3139 3140 3140 3141 3143 3142 3142 3142 3143 3144 3144 3144 3145 3145 3145 3146 3146 3147 3147 3148 3148 3149 3150 3150 3151 3151 3152 3152 3153 3153 3154 3154 3154 3155 3155 3155 3156 3156 3157 3157
3121 3121 3121 3121 3121 3121 3121 3121 3121 3121 3121 3121 3121 3121 3122 3122 3122 3122 3123 3123 3123 3123 3124 3124 3125 3125 3125 3125 3126 3126 3126 3126 3127 3127 3127 3127 3128 3128 3128 3128 3129 3129 3130 3130 3130 3131 3131 3131 3132 3132 3132 3132 3132 3133 3133 3134 3135 3135 3136 3136 3136 3137 3137 3137 3138 3139 3139 3140 3140 3140 3141 3142 3143 3142 3143 3143 3144 3144 3145 3145 3145 3146 3147 3147 3148 3148 3149 3150 3150 3151 3151 3152 3152 3152 3153 3153 3154 3154 3155 3155 3156 3156 3156
3120 3119 3119 3119 3120 3120 3120 3120 3120 3120 3119 3119 3119 3119 3120 3120 3120 3120 3120 3120 3121 3121 3121 3122 3122 3123 3123 3124 3124 3124 3124 3125 3125 3125 3125 3125 3125 3126 3126 3126 3127 3128 3128 3128 3129 3129 3129 3130 3130 3130 3130 3131 3131 3131 3132 3132 3133 3134 3134 3135 3135 3135 3135 3136 3136 3137 3137 3138 3138 3139 3139 3140 3140 3140 3141 3141 3142 3142 3143 3144 3144 3145 3145 3146 3146 3147 3148 3148 3149 3150 3150 3150 3151 3151 3152 3152 3153 3153 3154 3155 3155 3155 3155
3118 3118 3117 3117 3117 3118 3118 3118 3118 3118 3118 3117 3117 3117 3117 3118 3118 3118 3118 3118 3119 3119 3119 3120 3120 3120 3121 3121 3122 3122 3122 3123 3123 3123 3123 3123 3124 3124 3124 3125 3125 3125 3126 3126 3127 3127 3128 3128 3128 3129 3129 3129 3130 3130 3130 3131 3131 3132 3133 3133 3133 3134 3134 3134 3135 3135 3135 3136 3136 3137 3138 3138 3138 3139 3139 3140 3140 3141 3141 3142 3143 3143 3144 3145 3145 3146 3146 3147 3148 3148 3149 3149 3150 3150 3150 3151 3152 3152 3153 3153 3154 3155 3155
3116 3116 3115 3115 3115 3116 3116 3116 3117 3116 3116 3116 3115 3115 3115 3116 3116 3116 3116 3116 3116 3117 3117 3117 3118 3118 3118 3119 3120 3120 3120 3121 3121 3121 3121 3121 3121 3122 3122 3123 3123 3124 3124 3125 3125 3125 3125 3126 3126 3127 3127 3128 3128 3128 3129 3129 3130 3130 3131 3131 3132 3132 3132 3133 3133 3133 3134 3134 3135 3136 3137 3136 3137 3137 3138 3138 3139 3139 3140 3140 3141 3142 3143 3143 3144 3145 3145 3146 3146 3147 3148 3148 3149 3149 3149 3150 3150 3151 3152 3152 3153 3153 3154
3114 3114 3114 3114 3114 3114 3114 3114 3114 3115 3115 3114 3114 3114 3114 3114 3114 3114 3114 3115 3115 3115 3115 3115 3115 3115 3116 3116 3117 3118 3118 3119 3119 3119 3119 3119 3119 3120 3120 3120 3121 3122 3122 3123 3123 3123 3124 3124 3125 3125 3125 3126 3126 3126 3127 3128 3128 3129 3129 3130 3130 3130 3130 3131 3131 3132 3132 3133 3133 3134 3135 3135 3136 3137 3136 3136 3137 3138 3138 3139 3140 3140 3141 3142 3142 3143 3144 3145 3145 3146 3146 3147 3147 3148 3148 3149 3149 3150 3150 3151 3152 3152 3153
3113 3112 3112 3112 3112 3111 3111 3111 3112 3112 3112 3112 3112 3112 3112 3112 3112 3112 3112 3113 3113 3113 3113 3113 3113 3113 3114 3114 3115 3115 3115 3116 3116 3117 3117 3117 3117 3117 3118 3118 3119 3120 3120 3121 3121 3121 3122 3122 3123 3123 3123 3124 3124 3125 3125 3126 3126 3127 3127 3128 3128 3128 3129 3129 3130 3130 3130 3131 3131 3132 3133 3133 3135 3136 3136 3135 3135 3136 3137 3137 3138 3139 3140 3140 3141 3142 3142 3143 3144 3144 3145 3145 3146 3146 3147 3147 3148 3149 3149 3150 3150 3151 3151
3111 3111 3110 3110 3110 3109 3109 3109 3109 3109 3110 3110 3110 3110 3110 3111 3111 3111 3111 3111 3111 3111 3111 3111 3111 3111 3111 3111 3112 3112 3113 3113 3114 3114 3115 3115 3115 3115 3115 3116 3117 3117 3118 3119 3119 3119 3120 3120 3120 3121 3121 3122 3122 3122 3123 3124 3125 3125 3125 3126 3126 3127 3127 3127 3128 3128 3129 3129 3130 3131 3132 3132 3134 3134 3134 3134 3134 3134 3135 3136 3136 3137 3138 3139 3139 3140 3141 3141 3142 3143 3144 3144 3145 3145 3145 3146 3147 3147 3148 3149 3149 3150 3150
3110 3110 3109 3109 3108 3108 3107 3107 3107 3107 3107 3107 3107 3108 3108 3109 3109 3109 3109 3109 3109 3109 3109 3109 3109 3109 3109 3109 3110 3110 3110 3111 3111 3112 3112 3112 3113 3113 3114 3114 3115 3115 3115 3116 3117 3117 3118 3118 3118 3119 3119 3120 3120 3120 3121 3122 3122 3123 3124 3124 3125 3125 3125 3125 3125 3126 3127 3127 3128 3130 3131 3132 3133 3133 3132 3133 3133 3133 3133 3134 3135 3135 3136 3137 3138 3138 3139 3140 3140 3141 3142 3142 3143 3144 3144 3145 3145 3146 3147 3147 3148 3148 3149
3109 3108 3108 3108 3107 3107 3106 3106 3105 3105 3105 3104 3105 3105 3105 3106 3106 3107 3107 3107 3107 3107 3107 3107 3107 3107 3107 3107 3107 3108 3108 3108 3108 3109 3109 3110 3110 3111 3111 3112 3112 3113 3113 3114 3114 3115 3115 3116 3116 3117 3117 3117 3118 3118 3119 3120 3120 3121 3121 3122 3123 3123 3123 3124 3124 3124 3125 3125 3126 3128 3130 3130 3131 3131 3130 3131 3131 3131 3132 3132 3133 3134 3135 3135 3136 3137 3138 3138 3139 3140 3140 3141 3141 3142 3143 3143 3144 3145 3145 3146 3146 3147 3148
3107 3107 3106 3106 3106 3105 3105 3105 3104 3104 3103 3103 3102 3102 3103 3103 3104 3104 3105 3105 3105 3105 3105 3105 3105 3105 3105 3105 3105 3105 3105 3105 3106 3106 3107 3107 3108 3108 3109 3109 3110 3110 3111 3111 3112 3112 3113 3113 3114 3114 3115 3115 3116 3116 3117 3117 3118 3119 3119 3120 3121 3121 3121 3122 3122 3122 3123 3123 3124 3125 3126 3128 3130 3130 3129 3130 3130 3130 3130 3131 3131 3132 3133 3134 3135 3135 3136 3137 3137 3138 3139 3139 3140 3140 3141 3142 3142 3143 3144 3145 3145 3145 3146
3105 3105 3104 3104 3104 3104 3104 3103 3103 3102 3102 3101 3101 3101 3101 3101 3101 3101 3101 3102 3102 3102 3103 3103 3103 3103 3103 3103 3103 3103 3103 3103 3104 3104 3104 3105 3105 3105 3106 3107 3107 3108 3108 3109 3109 3110 3110 3111 3111 3112 3112 3113 3113 3114 3115 3115 3116 3116 3117 3118 3118 3119 3120 3120 3120 3120 3121 3121 3122 3123 3124 3126 3127 3127 3128 3129 3130 3130 3129 3129 3130 3131 3131 3132 3133 3134 3134 3135 3136 3137 3137 3138 3138 3139 3140 3140 3141 3141 3142 3143 3144 3144 3145
3103 3102 3102 3102 3102 3101 3101 3101 3101 3101 3100 3100 3100 3100 3100 3100 3100 3099 3099 3099 3099 3099 3100 3100 3100 3100 3100 3101 3101 3101 3101 3101 3101 3102 3102 3102 3103 3103 3104 3104 3105 3105 3106 3106 3107 3107 3108 3108 3109 3110 3110 3110 3111 3112 3112 3113 3114 3114 3115 3115 3116 3117 3117 3118 3118 3118 3119 3119 3120 3120 3121 3123 3125 3125 3126 3127 3128 3127 3127 3129 3130 3130 3130 3130 3131 3132 3133 3134 3135 3135 3136 3136 3137 3137 3138 3139 3139 3140 3140 3141 3142 3143 3143
3101 3101 3100 3100 3099 3099 3099 3099 3099 3098 3098 3098 3098 3098 3098 3098 3098 3098 3097 3097 3097 3097 3097 3097 3097 3098 3098 3098 3098 3099 3099 3099 3099 3099 3100 3100 3100 3100 3101 3101 3102 3102 3103 3104 3104 3105 3105 3106 3107 3107 3108 3108 3109 3109 3110 3111 3111 3112 3112 3113 3114 3114 3115 3115 3116 3116 3117 3117 3117 3118 3119 3120 3122 3123 3124 3125 3126 3126 3126 3127 3127 3127 3128 3129 3130 3130 3131 3132 3133 3133 3134 3135 3135 3135 3136 3137 3137 3138 3139 3140 3140 3141 3142
3100 3099 3099 3098 3097 3097 3096 3096 3096 3096 3095 3095 3095 3095 3096 3096 3096 3096 3096 3095 3095 3095 3095 3095 3095 3095 3095 3096 3096 3096 3096 3096 3096 3097 3097 3097 3098 3098 3098 3098 3099 3100 3100 3101 3102 3102 3103 3104 3104 3105 3105 3106 3106 3107 3108 3108 3109 3110 3110 3111 3111 3112 3113 3113 3114 3114 3115 3115 3115 3116 3117 3118 3119 3120 3120 3122 3124 3124 3124 3124 3125 3126 3127 3128 3128 3129 3130 3130 3131 3132 3133 3133 3134 3134 3134 3135 3136 3136 3137 3138 3139 3139 3140
3098 3097 3097 3096 3096 3095 3095 3094 3093 3093 3093 3093 3093 3093 3093 3094 3094 3094 3094 3093 3093 3093 3093 3092 3092 3092 3093 3093 3094 3094 3094 3094 3094 3094 3095 3095 3095 3095 3095 3096 3096 3097 3097 3098 3099 3100 3100 3101 3102 3103 3103 3104 3104 3105 3105 3106 3107 3108 3108 3109 3109 3110 3110 3111 3111 3112 3112 3113 3113 3114 3115 3115 3116 3117 3118 3119 3120 3121 3122 3123 3124 3125 3126 3127 3126 3126 3127 3128 3129 3130 3131 3131 3132 3132 3133 3133 3134 3135 3135 3136 3137 3137 3138
3095 3095 3095 3095 3094 3094 3093 3092 3091 3090 3090 3090 3090 3090 3091 3091 3091 3091 3091 3091 3091 3091 3090 3091 3091 3090 3090 3091 3091 3092 3092 3092 3092 3092 3092 3092 3093 3093 3093 3093 3093 3094 3095 3095 3096 3097 3098 3099 3100 3100 3101 3102 3103 3103 3103 3104 3105 3105 3106 3106 3106 3107 3108 3108 3109 3110 3110 3111 3111 3112 3112 3113 3114 3115 3116 3117 3118 3119 3120 3121 3122 3124 3125 3125 3125 3125 3125 3126 3127 3128 3129 3130 3130 3130 3131 3131 3132 3133 3134 3135 3135 3136 3136
3093 3093 3093 3092 3092 3092 3091 3090 3089 3088 3088 3087 3087 3088 3088 3088 3089 3088 3088 3088 3088 3088 3088 3089 3089 3089 3088 3088 3089 3089 3090 3090 3090 3090 3090 3090 3090 3090 3090 3090 3090 3091 3092 3092 3093 3094 3095 3096 3097 3098 3098 3100 3101 3101 3101 3102 3103 3103 3103 3103 3104 3104 3105 3106 3107 3107 3108 3108 3109 3110 3110 3111 3111 3112 3113 3114 3115 3116 3117 3118 3120 3121 3122 3122 3122 3122 3123 3124 3125 3126 3127 3127 3128 3129 3129 3130 3130 3131 3132 3133 3133 3134 3135
3091 3091 3090 3090 3090 3089 3089 3088 3088 3087 3086 3085 3085 3085 3085 3086 3086 3086 3086 3086 3086 3086 3086 3086 3085 3085 3085 3085 3086 3086 3087 3087 3087 3088 3088 3088 3088 3088 3088 3088 3088 3088 3089 3090 3090 3091 3092 3093 3094 3095 3095 3096 3097 3098 3099 3100 3100 3100 3100 3100 3100 3101 3102 3103 3104 3105 3105 3106 3106 3107 3108 3109 3109 3110 3111 3112 3113 3114 3115 3115 3116 3118 3119 3120 3120 3120 3121 3122 3122 3123 3124 3125 3127 3128 3128 3128 3128 3129 3130 3130 3131 3132 3133
3088 3088 3088 3088 3087 3087 3086 3086 3085 3085 3084 3083 3083 3083 3083 3083 3084 3084 3083 3083 3083 3083 3083 3083 3083 3083 3083 3083 3083 3084 3084 3085 3085 3085 3085 3085 3085 3085 3086 3086 3085 3085 3086 3087 3087 3088 3089 3090 3091 3092 3093 3093 3094 3095 3096 3096 3096 3097 3097 3098 3098 3099 3099 3100 3101 3102 3103 3103 3104 3105 3105 3106 3107 3108 3109 3109 3110 3111 3112 3113 3114 3115 3116 3117 3117 3118 3119 3119 3120 3121 3122 3123 3124 3125 3125 3126 3126 3127 3128 3128 3129 3130 3130
3086 3085 3085 3085 3085 3084 3084 3083 3083 3082 3082 3081 3081 3081 3080 3081 3081 3081 3081 3080 3080 3080 3081 3080 3080 3080 3080 3080 3081 3081 3081 3082 3082 3082 3083 3083 3083 3083 3082 3083 3083 3083 3083 3084 3085 3085 3086 3087 3088 3089 3090 3090 3091 3091 3092 3092 3093 3094 3094 3095 3095 3096 3097 3098 3099 3099 3100 3101 3101 3102 3103 3104 3105 3105 3106 3107 3108 3109 3110 3111 3111 3112 3113 3114 3115 3115 3116 3117 3118 3119 3119 3120 3121 3122 3123 3124 3125 3125 3125 3126 3127 3128 3128
3083 3083 3083 3082 3082 3081 3081 3080 3080 3080 3079 3079 3079 3078 3078 3078 3078 3079 3078 3078 3078 3078 3078 3078 3078 3078 3078 3078 3078 3078 3079 3079 3079 3080 3080 3080 3080 3080 3080 3080 3081 3081 3080 3080 3081 3082 3083 3084 3085 3085 3086 3087 3088 3088 3089 3090 3090 3091 3092 3092 3093 3094 3094 3095 3096 3096 3097 3098 3099 3100 3100 3101 3102 3103 3104 3105 3105 3106 3107 3108 3109 3110 3110 3111 3112 3113 3114 3115 3116 3117 3117 3117 3118 3119 3120 3122 3123 3123 3123 3124 3125 3125 3126
3081 3080 3080 3080 3079 3079 3078 3078 3077 3077 3076 3076 3076 3076 3076 3076 3076 3075 3075 3075 3075 3075 3075 3075 3075 3075 3075 3075 3075 3076 3076 3076 3077 3077 3077 3077 3077 3077 3077 3077 3078 3079 3079 3078 3079 3079 3080 3080 3081 3082 3083 3084 3084 3085 3086 3087 3087 3088 3089 3089 3090 3091 3091 3093 3093 3094 3094 3095 3095 3096 3097 3098 3099 3100 3101 3102 3103 3104 3105 3105 3106 3107 3108 3109 3110 3110 3112 3113 3114 3115 3115 3115 3116 3117 3118 3120 3121 3121 3121 3121 3122 3123 3124
3078 3078 3077 3077 3076 3076 3076 3075 3075 3074 3074 3074 3073 3073 3073 3073 3073 3073 3073 3073 3072 3072 3072 3072 3072 3072 3072 3073 3073 3073 3074 3074 3074 3074 3074 3074 3074 3074 3074 3075 3075 3076 3077 3077 3077 3077 3077 3078 3078 3079 3079 3080 3081 3082 3084 3085 3085 3085 3085 3086 3087 3089 3089 3090 3090 3091 3091 3092 3092 3093 3094 3095 3096 3097 3098 3099 3100 3100 3101 3102 3103 3104 3105 3106 3107 3108 3109 3110 3110 3111 3112 3113 3114 3115 3116 3117 3118 3118 3119 3120 3120 3121 3122
3075 3075 3074 3074 3074 3073 3073 3073 3072 3071 3071 3071 3070 3070 3070 3070 3070 3070 3070 3070 3070 3069 3069 3070 3070 3070 3070 3070 3070 3070 3071 3071 3071 3071 3071 3071 3071 3071 3072 3072 3072 3073 3074 3074 3074 3075 3075 3075 3076 3076 3077 3077 3077 3079 3080 3081 3082 3082 3083 3083 3085 3086 3086 3087 3087 3088 3088 3089 3089 3090 3091 3092 3093 3094 3095 3096 3097 3098 3099 3100 3100 3101 3102 3103 3104 3105 3106 3107 3108 3109 3110 3111 3112 3113 3114 3115 3115 3116 3116 3118 3118 3119 3120
3072 3072 3071 3071 3070 3070 3070 3070 3069 3069 3068 3068 3068 3068 3068 3068 3068 3067 3067 3067 3066 3066 3066 3067 3067 3067 3067 3067 3068 3068 3068 3068 3068 3068 3068 3069 3069 3069 3069 3069 3070 3070 3070 3071 3071 3072 3072 3073 3073 3074 3075 3076 3075 3075 3076 3077 3078 3079 3080 3080 3081 3082 3083 3084 3084 3085 3085 3085 3086 3087 3088 3089 3090 3091 3092 3093 3094 3095 3096 3097 3098 3099 3100 3101 3102 3103 3103 3104 3105 3106 3107 3109 3110 3111 3112 3112 3113 3114 3114 3115 3116 3117 3118
3069 3069 3068 3068 3068 3067 3067 3067 3067 3066 3066 3065 3065 3065 3065 3065 3065 3065 3064 3064 3064 3064 3064 3064 3064 3064 3064 3065 3065 3065 3065 3065 3065 3065 3065 3065 3065 3066 3066 3066 3067 3067 3068 3068 3069 3069 3070 3070 3070 3071 3072 3072 3072 3072 3073 3074 3075 3076 3077 3077 3078 3079 3080 3081 3081 3082 3082 3083 3084 3085 3085 3086 3088 3089 3090 3091 3092 3093 3094 3095 3095 3096 3097 3098 3099 3100 3101 3102 3103 3104 3105 3106 3108 3109 3110 3110 3110 3111 3112 3113 3114 3115 3115
3066 3065 3065 3065 3065 3064 3064 3064 3064 3063 3063 3063 3062 3062 3062 3062 3062 3062 3061 3061 3061 3061 3061 3061 3061 3061 3061 3062 3062 3062 3062 3062 3062 3062 3062 3063 3063 3063 3063 3064 3064 3064 3065 3065 3066 3066 3066 3067 3068 3068 3069 3069 3069 3070 3070 3071 3072 3073 3074 3075 3075 3076 3077 3078 3079 3079 3079 3080 3081 3082 3083 3084 3085 3086 3087 3088 3089 3090 3091 3092 3093 3094 3095 3096 3097 3098 3099 3100 3100 3102 3103 3104 3105 3106 3107 3108 3108 3109 3110 3111 3112 3113 3114
3063 3062 3061 3061 3061 3061 3061 3061 3061 3060 3060 3060 3059 3059 3059 3059 3059 3059 3059 3059 3058 3058 3058 3058 3058 3059 3059 3059 3059 3059 3059 3059 3059 3059 3060 3060 3060 3060 3060 3061 3061 3061 3062 3062 3063 3063 3064 3064 3065 3065 3066 3066 3067 3067 3068 3069 3069 3070 3071 3072 3073 3074 3075 3075 3076 3076 3077 3077 3078 3079 3080 3081 3082 3083 3085 3085 3087 3088 3089 3090 3090 3091 3092 3093 3094 3095 3096 3097 3098 3099 3100 3101 3103 3104 3105 3105 3106 3107 3108 3109 3110 3111 3111
3060 3060 3059 3058 3058 3058 3057 3057 3057 3057 3057 3057 3056 3056 3056 3056 3056 3056 3056 3056 3055 3055 3055 3055 3055 3055 3056 3056 3056 3056 3056 3056 3056 3056 3056 3057 3057 3057 3058 3058 3058 3059 3059 3060 3060 3060 3061 3061 3062 3062 3063 3064 3064 3065 3065 3065 3066 3067 3068 3069 3070 3072 3073 3073 3073 3073 3074 3075 3075 3076 3077 3078 3079 3080 3082 3083 3084 3085 3086 3087 3088 3088 3089 3090 3092 3093 3094 3095 3096 3097 3098 3100 3100 3101 3102 3103 3104 3105 3106 3107 3108 3108 3109
3057 3056 3056 3055 3055 3054 3054 3054 3054 3054 3054 3054 3053 3053 3053 3053 3053 3053 3053 3053 3053 3052 3052 3052 3052 3053 3053 3054 3054 3054 3054 3053 3053 3054 3054 3054 3054 3055 3054 3054 3055 3056 3056 3057 3057 3057 3058 3058 3059 3059 3060 3060 3061 3062 3062 3062 3064 3065 3065 3067 3068 3070 3071 3071 3070 3071 3071 3072 3073 3074 3075 3075 3077 3078 3079 3080 3081 3082 3084 3085 3085 3086 3086 3087 3089 3090 3091 3092 3093 3095 3096 3097 3099 3099 3100 3101 3102 3103 3104 3105 3105 3106 3107
3052 3052 3052 3052 3051 3051 3051 3050 3050 3050 3050 3050 3050 3050 3049 3049 3049 3050 3050 3050 3050 3050 3050 3050 3050 3050 3050 3051 3051 3051 3051 3051 3051 3051 3051 3051 3051 3051 3051 3051 3052 3053 3054 3054 3054 3054 3055 3055 3056 3056 3057 3058 3058 3059 3060 3060 3061 3062 3063 3065 3066 3067 3067 3067 3068 3068 3069 3070 3070 3071 3072 3073 3074 3075 3076 3077 3078 3080 3081 3082 3083 3084 3085 3085 3086 3087 3088 3090 3091 3092 3094 3095 3096 3097 3098 3098 3100 3100 3101 3102 3103 3104 3105
3048 3048 3048 3048 3048 3048 3048 3047 3047 3047 3047 3047 3047 3046 3046 3046 3045 3046 3046 3047 3047 3047 3047 3047 3047 3047 3047 3048 3048 3048 3049 3049 3048 3048 3048 3048 3048 3048 3048 3049 3049 3050 3050 3051 3051 3051 3052 3053 3053 3053 3054 3055 3055 3056 3057 3058 3059 3060 3060 3062 3063 3063 3064 3065 3065 3066 3066 3067 3068 3069 3070 3070 3071 3073 3074 3075 3076 3077 3078 3080 3081 3082 3083 3084 3084 3085 3086 3087 3089 3090 3091 3093 3094 3095 3095 3096 3097 3098 3099 3100 3101 3102 3103
3043 3043 3044 3044 3044 3044 3044 3043 3043 3044 3044 3044 3044 3043 3043 3042 3042 3042 3042 3043 3043 3043 3044 3044 3044 3044 3044 3044 3045 3045 3046 3046 3046 3045 3045 3045 3045 3046 3045 3046 3046 3046 3047 3048 3048 3048 3049 3050 3050 3050 3050 3052 3053 3053 3054 3055 3056 3057 3058 3060 3061 3061 3061 3063 3063 3064 3065 3065 3066 3067 3067 3068 3069 3070 3071 3072 3073 3074 3075 3076 3078 3079 3080 3081 3082 3083 3084 3085 3086 3088 3089 3090 3091 3092 3093 3094 3095 3096 3096 3097 3099 3100 3101
3039 3039 3039 3040 3040 3040 3040 3040 3040 3040 3040 3040 3040 3040 3040 3040 3039 3039 3038 3038 3039 3039 3040 3041 3041 3041 3041 3041 3042 3042 3043 3043 3043 3043 3043 3042 3043 3043 3043 3043 3043 3044 3044 3045 3045 3045 3046 3047 3047 3047 3048 3049 3050 3051 3051 3052 3053 3054 3055 3056 3058 3059 3059 3060 3061 3061 3062 3063 3064 3065 3065 3065 3066 3067 3068 3069 3070 3071 3072 3074 3075 3076 3077 3078 3079 3080 3081 3083 3084 3085 3086 3087 3088 3089 3090 3091 3092 3093 3095 3095 3097 3098 3099
3034 3035 3035 3035 3035 3036 3036 3036 3036 3036 3036 3037 3037 3037 3037 3037 3036 3036 3035 3035 3035 3035 3036 3037 3038 3038 3038 3039 3039 3040 3040 3040 3040 3040 3040 3040 3040 3040 3040 3040 3041 3041 3041 3041 3042 3043 3043 3044 3045 3045 3045 3047 3048 3048 3049 3050 3050 3051 3052 3054 3055 3056 3057 3057 3058 3058 3059 3060 3061 3062 3062 3063 3064 3065 3065 3066 3067 3069 3070 3071 3072 3073 3074 3075 3076 3077 3079 3080 3081 3082 3083 3084 3085 3086 3087 3089 3090 3091 3092 3093 3094 3095 3096
3030 3030 3030 3031 3032 3032 3032 3032 3032 3032 3032 3033 3034 3034 3034 3034 3034 3033 3032 3032 3031 3032 3032 3034 3035 3035 3035 3036 3036 3036 3037 3037 3037 3037 3037 3037 3037 3037 3037 3038 3038 3038 3038 3038 3039 3039 3040 3041 3042 3042 3042 3044 3045 3046 3046 3047 3048 3049 3050 3051 3052 3053 3054 3055 3055 3055 3056 3057 3058 3058 3059 3060 3061 3062 3063 3064 3065 3066 3068 3069 3070 3071 3071 3071 3072 3073 3075 3077 3078 3079 3080 3081 3083 3084 3085 3086 3087 3088 3089 3090 3091 3092 3094
3026 3026 3026 3027 3028 3028 3029 3029 3029 3029 3029 3030 3030 3030 3030 3030 3030 3030 3030 3029 3029 3029 3029 3030 3031 3031 3032 3032 3033 3034 3034 3034 3034 3034 3035 3034 3034 3034 3035 3035 3035 3035 3036 3036 3036 3037 3037 3038 3039 3039 3039 3041 3043 3043 3044 3045 3046 3047 3048 3049 3050 3051 3052 3052 3052 3052 3053 3054 3055 3056 3057 3058 3059 3060 3060 3061 3062 3064 3066 3067 3068 3069 3069 3068 3069 3070 3072 3073 3075 3076 3077 3078 3080 3081 3081 3083 3084 3085 3086 3088 3089 3090 3091
3022 3022 3022 3023 3023 3024 3025 3025 3025 3025 3025 3026 3026 3026 3026 3026 3026 3026 3026 3026 3026 3026 3026 3027 3027 3028 3028 3029 3030 3030 3031 3031 3032 3032 3031 3031 3031 3031 3032 3032 3032 3033 3033 3033 3033 3034 3034 3035 3035 3036 3037 3039 3039 3040 3042 3043 3044 3045 3046 3046 3047 3048 3049 3049 3049 3049 3050 3050 3052 3053 3055 3055 3056 3057 3058 3059 3060 3061 3064 3065 3067 3067 3067 3066 3066 3067 3069 3070 3072 3073 3075 3076 3077 3078 3079 3080 3081 3083 3084 3085 3086 3087 3089
3018 3018 3018 3018 3019 3020 3020 3020 3020 3021 3022 3022 3022 3021 3020 3021 3022 3023 3023 3023 3023 3023 3024 3024 3024 3025 3025 3025 3026 3026 3027 3028 3029 3029 3029 3029 3028 3028 3029 3029 3030 3030 3030 3030 3031 3031 3032 3032 3032 3033 3035 3035 3036 3037 3039 3040 3041 3042 3043 3043 3044 3045 3045 3046 3046 3047 3047 3048 3049 3050 3052 3053 3054 3055 3056 3057 3058 3059 3061 3063 3064 3065 3065 3065 3065 3066 3066 3068 3070 3071 3073 3074 3075 3075 3076 3078 3079 3080 3081 3082 3083 3085 3086
3015 3015 3015 3014 3014 3015 3015 3016 3016 3017 3018 3018 3018 3018 3017 3017 3017 3019 3020 3020 3020 3020 3020 3021 3021 3022 3022 3022 3023 3024 3024 3025 3026 3026 3026 3026 3026 3025 3026 3026 3026 3027 3028 3028 3028 3029 3029 3030 3030 3031 3032 3032 3033 3035 3035 3036 3038 3040 3040 3041 3041 3042 3042 3043 3043 3044 3045 3046 3047 3048 3050 3051 3052 3053 3054 3055 3056 3057 3059 3060 3062 3064 3064 3064 3064 3065 3066 3067 3068 3070 3071 3071 3072 3073 3074 3075 3076 3078 3079 3080 3081 3082 3083